{"data":{"norad_id":64346,"intl_designator":"2025-126C","name":"STARLINK-34437","alt_names":[],"object_type":"PAYLOAD","status":"ACTIVE","operator":null,"country":"US","launch_date":"2025-06-13","launch_site_code":"AFWTR","launch_vehicle":null,"mission":null,"orbit_class":"UNKNOWN","rcs_meters":null,"size_class":null,"mass_kg":null,"dimensions":null,"purposes":["comms"],"wikipedia_slug":null,"has_3d_model":false,"image_url":null,"decayed_at":null,"tle_current":{"epoch":"2026-05-25T03:43:36.945408Z","epoch_age_seconds":71795,"freshness":"FRESH","line1":"1 64346U 25126C   26145.15528872  .00002953  00000+0  25516-3 0  9995","line2":"2 64346  70.0005 201.7416 0003775 267.8864  92.1863 14.98334449 52130","mean_motion":14.98334449,"eccentricity":0.0003775,"inclination_deg":70.0005,"raan_deg":201.7416,"arg_perigee_deg":267.8864,"mean_anomaly_deg":92.1863,"bstar":0.00025516,"rev_number":5213,"period_min":96.106713755468,"perigee_km":569.41844019032,"apogee_km":574.6658254356,"semimajor_km":6950.179132813,"source":"CELESTRAK","updated_at":"2026-05-25T13:38:20.400324Z"}}}